Big Bear Station Historical Data
Daily Summary for February 14, 2017 Units:  English    Metric   Both
Next Day »
Daily Weekly Monthly Yearly Custom
  High: Low: Average:
Temperature: 51.1 °F 26.8 °F 35.6 °F
Dew Point: 33.4 °F 15.2 °F 24.9 °F
Humidity: 98% 26% 71%
Wind Speed: 5.8mph 0.0mph 0.9mph
Wind Gust: -999.0mph - -
Wind- - SSW
Pressure: 30.23 in 30.16 in -
Precipitation: 0.00 in    
Historical Graphs
 
 
Tabular Data for February 14, 2017
Time Temperature Dew Point Pressure Wind Wind Speed Wind Gust Humidity Rainfall Rate (Hourly)
00:05 29.8 °F 28.3 °F 30.17 in Calm   -999.0 mph 94% 0 in
00:20 29.7 °F 28.7 °F 30.17 in Calm   -999.0 mph 96% 0 in
00:36 29.5 °F 28.5 °F 30.17 in Calm   -999.0 mph 96% 0 in
00:51 29.8 °F 29.1 °F 30.17 in Calm   -999.0 mph 97% 0 in
01:06 29.8 °F 29.1 °F 30.17 in Calm   -999.0 mph 97% 0 in
01:21 29.8 °F 29.1 °F 30.17 in Calm   -999.0 mph 97% 0 in
01:36 29.8 °F 29.1 °F 30.17 in Calm   -999.0 mph 97% 0 in
01:52 29.8 °F 28.8 °F 30.17 in Calm   -999.0 mph 96% 0 in
02:07 29.7 °F 28.7 °F 30.16 in Calm   -999.0 mph 96% 0 in
02:22 29.3 °F 28.3 °F 30.16 in Calm   -999.0 mph 96% 0 in
02:37 29.3 °F 28.3 °F 30.16 in Calm   -999.0 mph 96% 0 in
02:53 29.7 °F 29.0 °F 30.16 in Calm   -999.0 mph 97% 0 in
03:08 29.7 °F 29.0 °F 30.16 in Calm   -999.0 mph 97% 0 in
03:23 29.3 °F 28.6 °F 30.16 in Calm   -999.0 mph 97% 0 in
03:38 29.1 °F 28.4 °F 30.16 in Calm   -999.0 mph 97% 0 in
03:53 29.5 °F 28.8 °F 30.16 in Calm   -999.0 mph 97% 0 in
04:09 29.7 °F 29.0 °F 30.16 in Calm   -999.0 mph 97% 0 in
04:24 29.8 °F 28.8 °F 30.16 in Calm   -999.0 mph 96% 0 in
04:39 29.7 °F 28.7 °F 30.16 in Calm   -999.0 mph 96% 0 in
04:54 29.8 °F 28.8 °F 30.16 in Calm   -999.0 mph 96% 0 in
05:09 29.7 °F 28.7 °F 30.16 in Calm   -999.0 mph 96% 0 in
05:25 29.8 °F 28.8 °F 30.16 in Calm   -999.0 mph 96% 0 in
05:40 29.7 °F 28.7 °F 30.16 in Calm   -999.0 mph 96% 0 in
05:55 29.5 °F 28.8 °F 30.17 in Calm   -999.0 mph 97% 0 in
06:10 29.3 °F 28.6 °F 30.17 in Calm   -999.0 mph 97% 0 in
06:25 29.5 °F 28.8 °F 30.17 in Calm   -999.0 mph 97% 0 in
06:41 29.3 °F 28.8 °F 30.17 in Calm   -999.0 mph 98% 0 in
06:56 29.7 °F 29.2 °F 30.18 in Calm   -999.0 mph 98% 0 in
07:12 30.6 °F 29.6 °F 30.18 in SSE 2.2 mph -999.0 mph 96% 0 in
07:27 30.6 °F 29.6 °F 30.18 in Calm   -999.0 mph 96% 0 in
07:42 30.6 °F 29.3 °F 30.18 in Calm   -999.0 mph 95% 0 in
07:57 30.9 °F 29.4 °F 30.18 in Calm   -999.0 mph 94% 0 in
08:13 32.9 °F 30.3 °F 30.19 in Calm   -999.0 mph 90% 0 in
08:28 34.2 °F 31.6 °F 30.19 in Calm   -999.0 mph 90% 0 in
08:43 35.4 °F 32.2 °F 30.19 in Calm   -999.0 mph 88% 0 in
08:58 36.9 °F 32.2 °F 30.19 in Calm   -999.0 mph 83% 0 in
09:13 38.1 °F 32.2 °F 30.19 in Calm   -999.0 mph 79% 0 in
09:29 39.7 °F 33.4 °F 30.19 in ENE 1.7 mph -999.0 mph 78% 0 in
09:44 41.0 °F 30.9 °F 30.20 in Calm   -999.0 mph 67% 0 in
09:59 41.9 °F 29.0 °F 30.20 in Calm   -999.0 mph 60% 0 in
10:14 43.9 °F 26.5 °F 30.20 in ENE 1.1 mph -999.0 mph 50% 0 in
10:30 44.8 °F 22.5 °F 30.20 in NNE 1.7 mph -999.0 mph 41% 0 in
10:45 46.4 °F 22.2 °F 30.20 in NW 5.8 mph -999.0 mph 38% 0 in
11:00 45.7 °F 23.3 °F 30.20 in Calm   -999.0 mph 41% 0 in
11:16 48.2 °F 21.1 °F 30.20 in NNE 1.1 mph -999.0 mph 34% 0 in
11:31 47.3 °F 18.2 °F 30.20 in NW 4.2 mph -999.0 mph 31% 0 in
11:46 47.5 °F 16.8 °F 30.20 in NNE 5.3 mph -999.0 mph 29% 0 in
12:02 48.6 °F 15.2 °F 30.19 in NNE 4.2 mph -999.0 mph 26% 0 in
12:17 48.6 °F 15.2 °F 30.19 in Calm   -999.0 mph 26% 0 in
12:32 49.3 °F 18.4 °F 30.19 in NNE 1.1 mph -999.0 mph 29% 0 in
12:47 49.5 °F 20.1 °F 30.18 in WNW 1.7 mph -999.0 mph 31% 0 in
13:03 48.9 °F 21.0 °F 30.17 in NW 2.2 mph -999.0 mph 33% 0 in
13:18 51.1 °F 17.4 °F 30.17 in NW 3.2 mph -999.0 mph 26% 0 in
13:33 49.5 °F 16.9 °F 30.16 in NNW 2.7 mph -999.0 mph 27% 0 in
13:48 47.8 °F 19.3 °F 30.16 in NW 3.2 mph -999.0 mph 32% 0 in
14:04 47.5 °F 19.8 °F 30.16 in NW 4.2 mph -999.0 mph 33% 0 in
14:19 47.1 °F 20.1 °F 30.16 in WNW 3.2 mph -999.0 mph 34% 0 in
14:34 46.6 °F 21.1 °F 30.16 in NNW 3.7 mph -999.0 mph 36% 0 in
14:49 46.2 °F 22.6 °F 30.16 in NNW 4.2 mph -999.0 mph 39% 0 in
15:04 45.9 °F 22.9 °F 30.16 in NW 1.7 mph -999.0 mph 40% 0 in
15:20 45.3 °F 23.5 °F 30.16 in NNW 1.1 mph -999.0 mph 42% 0 in
15:35 45.0 °F 22.1 °F 30.16 in NNE 2.7 mph -999.0 mph 40% 0 in
15:50 44.1 °F 24.1 °F 30.16 in North 3.7 mph -999.0 mph 45% 0 in
16:06 43.9 °F 23.4 °F 30.16 in Calm   -999.0 mph 44% 0 in
16:21 43.5 °F 23.6 °F 30.16 in North 1.1 mph -999.0 mph 45% 0 in
16:36 42.6 °F 21.7 °F 30.17 in NNW 2.7 mph -999.0 mph 43% 0 in
16:51 41.9 °F 22.1 °F 30.17 in Calm   -999.0 mph 45% 0 in
17:06 40.6 °F 20.9 °F 30.17 in ESE 1.7 mph -999.0 mph 45% 0 in
17:22 39.7 °F 20.1 °F 30.17 in Calm   -999.0 mph 45% 0 in
17:37 38.5 °F 21.5 °F 30.18 in SSE 1.1 mph -999.0 mph 50% 0 in
17:53 37.2 °F 21.6 °F 30.18 in Calm   -999.0 mph 53% 0 in
18:08 36.3 °F 22.5 °F 30.19 in South 1.7 mph -999.0 mph 57% 0 in
18:24 35.4 °F 22.1 °F 30.19 in SSE 1.7 mph -999.0 mph 58% 0 in
18:39 34.5 °F 21.6 °F 30.19 in Calm   -999.0 mph 59% 0 in
18:54 33.6 °F 23.5 °F 30.20 in South 2.2 mph -999.0 mph 66% 0 in
19:09 32.7 °F 23.7 °F 30.19 in SSE 1.7 mph -999.0 mph 69% 0 in
19:24 32.0 °F 23.7 °F 30.20 in SSE 1.7 mph -999.0 mph 71% 0 in
19:40 31.6 °F 23.9 °F 30.20 in Calm   -999.0 mph 73% 0 in
19:55 30.9 °F 23.6 °F 30.21 in Calm   -999.0 mph 74% 0 in
20:10 30.6 °F 23.9 °F 30.21 in Calm   -999.0 mph 76% 0 in
20:25 30.2 °F 24.2 °F 30.21 in Calm   -999.0 mph 78% 0 in
20:40 29.5 °F 23.2 °F 30.21 in Calm   -999.0 mph 77% 0 in
20:56 29.1 °F 24.3 °F 30.21 in Calm   -999.0 mph 82% 0 in
21:11 28.8 °F 23.4 °F 30.22 in Calm   -999.0 mph 80% 0 in
21:26 28.2 °F 22.5 °F 30.22 in Calm   -999.0 mph 79% 0 in
21:41 28.0 °F 22.6 °F 30.22 in Calm   -999.0 mph 80% 0 in
21:57 28.0 °F 23.2 °F 30.22 in Calm   -999.0 mph 82% 0 in
22:12 27.3 °F 22.5 °F 30.22 in Calm   -999.0 mph 82% 0 in
22:27 28.4 °F 23.0 °F 30.22 in Calm   -999.0 mph 80% 0 in
22:42 27.5 °F 21.8 °F 30.23 in Calm   -999.0 mph 79% 0 in
22:57 27.3 °F 21.9 °F 30.23 in Calm   -999.0 mph 80% 0 in
23:13 27.1 °F 22.0 °F 30.23 in Calm   -999.0 mph 81% 0 in
23:28 27.1 °F 22.0 °F 30.23 in Calm   -999.0 mph 81% 0 in
23:44 26.8 °F 22.0 °F 30.22 in Calm   -999.0 mph 82% 0 in
23:59 27.7 °F 22.6 °F 30.22 in Calm   -999.0 mph 81% 0 in
Big Bear CA Weather